EW9965 Weather Reports


Display with metric or nautical units.
time (UTC)temp
F
wind
direction
speed
MPH
gust
MPH
rain 1hr
in
rain 24hr
in
rain mn
in
humidity
%
barometer
mb
20260505061552 59 165 2.0 7.0 0.00 0.00 0.00 75 1015.0
20260505060053 60 161 3.0 7.0 0.00 0.00 0.00 74 1015.1
20260505054551 60 126 4.0 8.0 0.00 0.00 0.00 74 1015.2
20260505053051 60 149 3.0 7.0 0.00 0.00 0.00 73 1015.4
20260505051602 60 170 4.0 7.0 0.00 0.00 0.00 72 1015.6
20260505041549 60 178 3.0 6.0 0.00 0.00 0.00 72 1015.6
20260505040047 60 204 0.0 5.0 0.00 0.00 0.00 71 1015.5
20260505034549 60 212 1.0 7.0 0.00 0.00 0.00 71 1015.4
20260505033047 61 210 0.0 6.0 0.00 0.00 0.00 70 1015.4
20260505031552 61 171 0.0 6.0 0.00 0.00 0.00 70 1015.1
20260505030045 61 238 2.0 6.0 0.00 0.00 0.00 69 1015.1
20260505024544 61 185 1.0 8.0 0.00 0.00 0.00 68 1014.9
20260505023050 62 193 4.0 10.0 0.00 0.00 0.00 67 1014.9
20260505021544 62 168 2.0 9.0 0.00 0.00 0.00 66 1014.8
20260505020043 63 163 3.0 8.0 0.00 0.00 0.00 64 1014.9
20260505014542 64 228 3.0 9.0 0.00 0.00 0.00 62 1014.7
20260505013058 65 213 3.0 11.0 0.00 0.00 0.00 61 1014.9
20260505011541 65 243 0.0 8.0 0.00 0.00 0.00 60 1014.8
20260505010040 66 182 5.0 12.0 0.00 0.00 0.00 58 1014.9
20260505004540 67 139 5.0 11.0 0.00 0.00 0.00 56 1015.0
20260505003039 68 186 5.0 11.0 0.00 0.00 0.00 54 1014.8
20260505001538 69 253 4.0 11.0 0.00 0.00 0.00 51 1014.8
20260505000051 69 225 3.0 9.0 0.00 0.00 0.00 51 1014.7
20260504234538 69 174 5.0 12.0 0.00 0.00 0.00 51 1014.9
20260504233041 69 230 4.0 9.0 0.00 0.00 0.00 51 1014.8
20260504231536 70 187 3.0 12.0 0.00 0.00 0.00 50 1014.7
20260504230036 70 178 3.0 14.0 0.00 0.00 0.00 49 1014.8
20260504224535 70 163 5.0 11.0 0.00 0.00 0.00 50 1014.8
20260504223041 71 167 5.0 11.0 0.00 0.00 0.00 47 1014.9
20260504221533 71 201 2.0 9.0 0.00 0.00 0.00 47 1014.9
20260504220040 70 234 5.0 16.0 0.00 0.00 0.00 47 1015.1
20260504214541 71 157 3.0 11.0 0.00 0.00 0.00 49 1015.2
20260504213035 71 199 5.0 10.0 0.00 0.00 0.00 48 1015.2
20260504211536 71 203 4.0 12.0 0.00 0.00 0.00 48 1015.4
20260504210031 70 191 3.0 13.0 0.00 0.00 0.00 47 1015.3
20260504204531 71 255 7.0 12.0 0.00 0.00 0.00 46 1015.6
20260504203032 70 207 5.0 11.0 0.00 0.00 0.00 47 1015.3
20260504201529 71 178 7.0 14.0 0.00 0.00 0.00 48 1015.4
20260504200027 70 216 5.0 11.0 0.00 0.00 0.00 50 1015.6
20260504194524 69 215 6.0 11.0 0.00 0.00 0.00 50 1015.8
20260504193025 69 262 2.0 10.0 0.00 0.00 0.00 51 1015.8
20260504191523 68 249 6.0 12.0 0.00 0.00 0.00 51 1015.8
20260504190019 68 184 4.0 8.0 0.00 0.00 0.00 53 1016.0
20260504184519 67 245 5.0 11.0 0.00 0.00 0.00 52 1016.2
20260504183016 66 178 3.0 8.0 0.00 0.00 0.00 56 1016.2
20260504181523 66 268 3.0 8.0 0.00 0.00 0.00 59 1016.3
20260504180011 65 189 1.0 7.0 0.00 0.00 0.00 59 1016.3
20260504174509 64 229 3.0 8.0 0.00 0.00 0.00 61 1016.2
20260504173009 65 160 2.0 11.0 0.00 0.00 0.00 62 1016.2
20260504171508 65 204 1.0 10.0 0.00 0.00 0.00 62 1016.1
20260504081507 60 180 2.0 7.0 0.00 0.01 0.00 76 1015.5